PROFILE

 METAR AND TAF INFORMATION
ADDS - METARS form results

(0156 UTC 02 June 2020)
http://aviationweather.gov/metar/data/
 
GLRB 020130Z 00000KT 9999 BKN011 FEW022CB 25/24 Q1013 NOSIG RMK CB-NE
GLRB 020100Z 00000KT 9999 BKN011 FEW022CB 25/24 Q1014 NOSIG RMK CB-NE
TAF GLRB 011700Z 0118/0218 31008KT 9999 SCT020 TEMPO 0120/0124 16003KT 9000 TS BKN013 FEW023CB BECMG 0202/0204 VRB02KT 7000 -TSRA BKN010 FEW020CB 

 AIRPORT MAP

 RUNWAY INFORMATION
Runway 04 Runway length 11000 ft Runway width 150 ft
Runway elevation 29 ft Runway displaced threshold 0 ft Runway heading 31
Runway 22 Runway length 11000 ft Runway width 150 ft
Runway elevation 25 ft Runway displaced threshold 1200 ft Runway heading 211

 AIRPORT FREQUENCIES
Type A/G Name A/G VOICE Frequency 345.2 MHZ
Type APP Name ROBERTS AP Frequency 124.5 MHZ
Type GND Name GND Frequency 121.9 MHZ
Type TWR Name ROBERTS TW Frequency 118.3 MHZ

 AIRPORT NEAR NAVIGATION AIDS
Type NDB Name Monrovia Roberts Frequency 263 KHZ
Type NDB Name Monrovia Roberts Frequency 372 KHZ
Type VOR-DME Name Monrovia Roberts Frequency 113800 KHZ